User: anonymous   Login
Location: Three Oaks Observatory
(31.1535°N, 83.5955°W)
Time: 04:24:38
(UTC-05:00)
Language:

Hubble Space Telescope - Orbit

View from above orbital plane
View from above orbital plane
View from above satellite
View from above satellite

Ground track
Ground track

The orbit data is extracted from the following two-line orbital elements,

1 20580U 90037B   19047.94670230 +.00000419 +00000-0 +14617-4 0  9993
2 20580 028.4695 296.9447 0002557 252.6344 224.1966 15.09174174382391
Epoch (UTC): 16 February 2019 22:43:15
Eccentricity: 0.0002557
inclination: 28.4695°
perigee height: 537 km
apogee height: 540 km
right ascension of ascending node: 296.9447°
argument of perigee: 252.6344°
revolutions per day: 15.09174174
mean anomaly at epoch: 224.1966°
orbit number at epoch: 38239

The dashed part of the orbit path shows where the satellite is in the earth's shadow,  

DLR